Regional Weather Roundup
Issued by NWS

Home | Current Version | Previous Version | Graphics & Text | Print | Product List | Glossary On
Versions: 1 2 3 4 5 6 7 8 9 10 11 12 13 14 15 16 17 18 19 20 21 22 23 24 25 26 27 28 29 30 31 32 33 34 35 36 37 38 39 40 41 42 43 44 45 46 47 48 49 50
000
ASUS43 KOAX 232103
RWRNE

WEATHER ROUNDUP FOR NEBRASKA
NATIONAL WEATHER SERVICE OMAHA NE
400 PM CDT WED MAY 23 2018

NOTES: SATELLITE DATA IS BEING USED TO AUGMENT CLOUD COVER ABOVE
       12000 FEET.
       "FAIR" INDICATES FEW OR NO CLOUDS BELOW 12,000 FEET WITH NO
       SIGNIFICANT WEATHER AND/OR OBSTRUCTIONS TO VISIBILITY.


NEZ001>004-019>022-054>056-232200-
NEBRASKA PANHANDLE

CITY           SKY/WX    TMP DP  RH WIND       PRES   REMARKS
SCOTTSBLUFF    SUNNY     79  56  45 SE14      29.93S
ALLIANCE       SUNNY     78  58  49 SE9       29.92F
CHADRON        SUNNY     78  57  48 E6        29.90S
GORDON         FAIR      78  59  50 N5        29.91F
KIMBALL        MOSUNNY   74  53  46 S8        29.99S
SIDNEY         MOSUNNY   81  55  40 S10       29.95F
$$

NEZ057>060-069>072-079>082-232200-
SOUTHWEST NEBRASKA

CITY           SKY/WX    TMP DP  RH WIND       PRES   REMARKS
NORTH PLATTE   PTSUNNY   84  62  47 S13G22    29.94F
IMPERIAL       PTSUNNY   88  52  29 S20G29    29.92F
LEXINGTON      PTSUNNY   85  61  44 S22       29.94F
MCCOOK         MOSUNNY   85  57  38 S14G28    29.93F
OGALLALA       PTSUNNY   84  55  37 S20       29.91F
$$

NEZ005>010-023>029-035>040-094-232200-
NORTH CENTRAL NEBRASKA

CITY           SKY/WX    TMP DP  RH WIND       PRES   REMARKS
VALENTINE      CLOUDY    84  57  39 S20G30    29.90F
AINSWORTH      PTSUNNY   82  60  46 S18G25    29.92F
BROKEN BOW     PTSUNNY   84  63  49 S16       29.95F
O`NEILL        MOSUNNY   84  63  48 S12       29.95S
ORD            PTSUNNY   83  65  54 SE8       29.91F
THEDFORD       PTSUNNY   83  56  38 S24       29.95F
$$

NEZ041-046>049-061>064-073>077-083>087-232200-
SOUTH CENTRAL NEBRASKA

CITY           SKY/WX    TMP DP  RH WIND       PRES   REMARKS
GRAND ISLAND   MOSUNNY   88  62  41 S18G35    29.94F
AURORA         MOSUNNY   89  56  32 S22G29    29.95F
HASTINGS       MOSUNNY   86  61  42 S15G28    29.96F
HEBRON         MOSUNNY   91  54  27 S15G22    29.97F
HOLDREGE       PTSUNNY   84  60  44 S23G31    29.96F
KEARNEY        CLOUDY    85  61  44 S22G30    29.95S
YORK           MOSUNNY   90  57  33 S18G26    29.96F
$$

NEZ011>018-030>034-042>045-232200-
NORTHEAST NEBRASKA

CITY           SKY/WX    TMP DP  RH WIND       PRES   REMARKS
NORFOLK        MOSUNNY   90  58  33 S18G30    29.93S
ALBION         PTSUNNY   87  60  40 S16G23    29.94F
BLAIR          MOSUNNY   90  61  37 SE12G17   29.98F HX  90
COLUMBUS       MOSUNNY   91  57  31 S18       29.95F
FREMONT        MOSUNNY   92  57  30 SE14G23   29.97F HX  91
TEKAMAH        SUNNY     89  65  44 SE20      29.97F HX  91
WAYNE          SUNNY     88  58  35 S20G30    29.96S
$$

NEZ050>053-065>068-078-088>093-232200-
SOUTHEAST NEBRASKA

CITY           SKY/WX    TMP DP  RH WIND       PRES   REMARKS
LINCOLN        MOSUNNY   90  59  35 S17G28    29.96F
OMAHA EPPLEY   MOSUNNY   92  61  35 S16G31    29.98F HX  92
BEATRICE       MOSUNNY   91  63  38 S13G21    29.98F HX  92
FALLS CITY     MOSUNNY   91  61  36 S15G25    29.99F HX  91
NEBRASKA CITY  MOSUNNY   90  61  37 S13       29.99F HX  90
PLATTSMOUTH    MOSUNNY   90  60  36 SE9G18    29.99F
$$

NEZ044-045-051>053-067-232200-
OMAHA AREA

CITY           SKY/WX    TMP DP  RH WIND       PRES   REMARKS
OMAHA EPPLEY   MOSUNNY   92  61  35 S16G31    29.98F HX  92
BLAIR          MOSUNNY   90  61  37 SE12G17   29.98F HX  90
FREMONT        MOSUNNY   92  57  30 SE14G23   29.97F HX  91
MILLARD        MOSUNNY   90  65  43 SE15G22   29.97F HX  91
OFFUTT AFB     SUNNY     91  61  37 SE16G22   29.97F HX  90
PLATTSMOUTH    MOSUNNY   90  60  36 SE9G18    29.99F
WAHOO          FAIR      92  51  24 S21G29    29.97F HX  90
$$




USA.gov is the U.S. government's official web portal to all federal, state and local government web resources and services.